QPF
0.00 0.00 0.00 0.00 0.00 0.00 0.00 0.00 0.00 0.00 0.00 0.00 0.00 0.00 0.00 0.00 0.08 0.16 0.02 0.00 0.00 0.00 0.00 0.00 0.00 0.00 0.00 0.00 0.00 0.00 0.00 0.00 0.00 0.00 0.00 0.00 0.00 0.00 0.00 0.00 0.00 0.00 0.00 0.00 0.00 0.00 0.00 0.00 0.00
0.00 0.00 0.00 0.00 0.00 0.00 0.00 0.00 0.00 0.00 0.00 0.00 0.00 0.00 0.00 0.00 0.01 0.05 0.02 0.00 0.00 0.00 0.00 0.00 0.00 0.00 0.00 0.00 0.00 0.00 0.00 0.00 0.00 0.00 0.00 0.00 0.00 0.00 0.00 0.00 0.00 0.00 0.00 0.00 0.00 0.00 0.00 0.00 0.00
0.00 0.00 0.00 0.00 0.00 0.00 0.00 0.00 0.00 0.00 0.00 0.00 0.00 0.00 0.00 0.01 0.01 0.01 0.04 0.01 0.00 0.00 0.00 0.00 0.00 0.00 0.00 0.00 0.00 0.00 0.00 0.00 0.00 0.00 0.00 0.00 0.00 0.00 0.00 0.00 0.00 0.00 0.00 0.00 0.00 0.00 0.00 0.00 0.00
0.00 0.00 0.00 0.00 0.00 0.00 0.00 0.00 0.00 0.00 0.00 0.00 0.00 0.00 0.00 0.01 0.05 0.04 0.00 0.02 0.00 0.00 0.00 0.00 0.00 0.00 0.00 0.00 0.00 0.00 0.00 0.00 0.00 0.00 0.00 0.00 0.00 0.00 0.00 0.00 0.00 0.00 0.00 0.00 0.00 0.00 0.00 0.00 0.00
0.00 0.00 0.00 0.00 0.00 0.00 0.00 0.00 0.00 0.00 0.00 0.00 0.00 0.00 0.00 0.02 0.01 0.01 0.00 0.00 0.00 0.00 0.00 0.00 0.00 0.00 0.00 0.00 0.00 0.00 0.00 0.00 0.00 0.00 0.00 0.00 0.00 0.00 0.00 0.00 0.00 0.00 0.00 0.00 0.00 0.00 0.00 0.00 0.00
0.00 0.00 0.00 0.00 0.00 0.00 0.00 0.00 0.00 0.00 0.00 0.00 0.00 0.00 0.01 0.01 0.00 0.00 0.00 0.00 0.00 0.00 0.00 0.00 0.00 0.00 0.00 0.00 0.00 0.00 0.00 0.00 0.00 0.00 0.00 0.00 0.00 0.00 0.00 0.00 0.00 0.00 0.00 0.00 0.00 0.00 0.00 0.00 0.00
0.00 0.00 0.00 0.00 0.00 0.00 0.00 0.00 0.00 0.00 0.00 0.00 0.00 0.00 0.00 0.00 0.00 0.00 0.00 0.00 0.00 0.00 0.00 0.00 0.00 0.00 0.00 0.00 0.00 0.00 0.00 0.00 0.00 0.00 0.00 0.00 0.00 0.00 0.00 0.00 0.00 0.00 0.00 0.00 0.00 0.00 0.00 0.00 0.00
0.00 0.00 0.00 0.00 0.00 0.00 0.00 0.00 0.00 0.00 0.00 0.00 0.00 0.00 0.00 0.00 0.00 0.00 0.01 0.01 0.00 0.00 0.00 0.00 0.00 0.00 0.00 0.00 0.00 0.00 0.00 0.00 0.00 0.00 0.00 0.00 0.00 0.00 0.00 0.00 0.00 0.00 0.00 0.00 0.00 0.00 0.00 0.00 0.00
0.00 0.00 0.00 0.00 0.00 0.00 0.00 0.00 0.00 0.00 0.00 0.00 0.00 0.00 0.00 0.00 0.00 0.00 0.01 0.02 0.00 0.00 0.00 0.00 0.00 0.00 0.00 0.00 0.00 0.00 0.00 0.00 0.00 0.00 0.00 0.00 0.00 0.00 0.00 0.00 0.00 0.00 0.00 0.00 0.00 0.00 0.00 0.00 0.00
0.00 0.00 0.00 0.00 0.00 0.00 0.00 0.00 0.00 0.00 0.00 0.00 0.00 0.00 0.00 0.00 0.01 0.00 0.02 0.01 0.00 0.00 0.00 0.00 0.00 0.00 0.00 0.00 0.00 0.00 0.00 0.00 0.00 0.00 0.00 0.00 0.00 0.00 0.00 0.00 0.00 0.00 0.00 0.00 0.00 0.00 0.00 0.00 0.00
0.00 0.00 0.00 0.00 0.00 0.00 0.00 0.00 0.00 0.00 0.00 0.00 0.00 0.00 0.00 0.00 0.00 0.01 0.01 0.01 0.00 0.00 0.00 0.00 0.00 0.00 0.00 0.00 0.00 0.00 0.00 0.00 0.00 0.00 0.00 0.00 0.00 0.00 0.00 0.00 0.00 0.00 0.00 0.00 0.00 0.00 0.00 0.00 0.00
0.00 0.00 0.00 0.00 0.00 0.00 0.00 0.00 0.00 0.00 0.00 0.00 0.00 0.00 0.00 0.00 0.00 0.00 0.00 0.02 0.01 0.00 0.00 0.00 0.00 0.00 0.00 0.00 0.00 0.00 0.00 0.00 0.00 0.00 0.00 0.00 0.00 0.00 0.00 0.00 0.00 0.00 0.00 0.00 0.00 0.00 0.00 0.00 0.00
0.00 0.00 0.00 0.00 0.00 0.00 0.00 0.00 0.00 0.00 0.00 0.00 0.00 0.01 0.00 0.00 0.00 0.00 0.00 0.02 0.03 0.00 0.00 0.00 0.00 0.00 0.00 0.00 0.00 0.00 0.00 0.00 0.00 0.00 0.00 0.00 0.00 0.00 0.00 0.00 0.00 0.00 0.00 0.00 0.00 0.00 0.00 0.00 0.00
0.00 0.00 0.00 0.00 0.00 0.00 0.00 0.00 0.00 0.00 0.00 0.00 0.00 0.00 0.02 0.00 0.00 0.00 0.00 0.01 0.01 0.00 0.00 0.00 0.00 0.00 0.00 0.00 0.00 0.00 0.00 0.00 0.00 0.00 0.00 0.00 0.00 0.00 0.00 0.00 0.00 0.00 0.00 0.00 0.00 0.00 0.00 0.00 0.00
0.00 0.00 0.00 0.00 0.00 0.00 0.00 0.00 0.00 0.00 0.00 0.00 0.00 0.00 0.00 0.00 0.00 0.00 0.00 0.01 0.01 0.00 0.00 0.00 0.00 0.00 0.00 0.00 0.00 0.00 0.00 0.00 0.00 0.00 0.00 0.00 0.00 0.00 0.00 0.00 0.00 0.00 0.00 0.00 0.00 0.00 0.00 0.00 0.00
0.00 0.00 0.00 0.00 0.00 0.00 0.00 0.00 0.00 0.00 0.00 0.00 0.00 0.00 0.00 0.01 0.01 0.00 0.00 0.00 0.01 0.00 0.00 0.00 0.00 0.00 0.00 0.00 0.00 0.00 0.00 0.00 0.00 0.00 0.00 0.00 0.00 0.00 0.00 0.00 0.00 0.00 0.00 0.00 0.00 0.00 0.00 0.00 0.00
0.00 0.00 0.00 0.00 0.00 0.00 0.00 0.00 0.00 0.00 0.00 0.00 0.00 0.00 0.00 0.00 0.04 0.06 0.01 0.00 0.01 0.00 0.00 0.00 0.00 0.00 0.00 0.00 0.00 0.00 0.00 0.00 0.00 0.00 0.00 0.00 0.00 0.00 0.00 0.00 0.00 0.00 0.00 0.00 0.00 0.00 0.00 0.00 0.00
0.00 0.00 0.00 0.00 0.00 0.00 0.00 0.00 0.00 0.00 0.00 0.00 0.00 0.00 0.00 0.00 0.00 0.05 0.09 0.02 0.00 0.00 0.00 0.00 0.00 0.00 0.00 0.00 0.00 0.00 0.00 0.00 0.00 0.00 0.00 0.00 0.00 0.00 0.00 0.00 0.00 0.00 0.00 0.00 0.00 0.00 0.00 0.00 0.00
0.00 0.00 0.00 0.00 0.00 0.00 0.00 0.00 0.00 0.00 0.00 0.00 0.00 0.00 0.00 0.00 0.00 0.01 0.08 0.13 0.06 0.00 0.00 0.00 0.00 0.00 0.00 0.00 0.00 0.00 0.00 0.00 0.00 0.00 0.00 0.00 0.00 0.00 0.00 0.00 0.00 0.00 0.00 0.00 0.00 0.00 0.00 0.00 0.00
0.00 0.00 0.00 0.00 0.00 0.00 0.00 0.00 0.00 0.00 0.00 0.00 0.00 0.00 0.00 0.00 0.00 0.01 0.05 0.14 0.29 0.08 0.00 0.00 0.00 0.00 0.00 0.00 0.00 0.00 0.00 0.00 0.00 0.00 0.00 0.00 0.00 0.00 0.00 0.00 0.00 0.00 0.00 0.00 0.00 0.00 0.00 0.00 0.00
0.00 0.00 0.00 0.00 0.00 0.00 0.00 0.00 0.00 0.00 0.00 0.00 0.00 0.00 0.00 0.00 0.00 0.00 0.05 0.09 0.11 0.36 0.13 0.00 0.00 0.00 0.00 0.00 0.00 0.00 0.00 0.00 0.00 0.00 0.00 0.00 0.00 0.00 0.00 0.00 0.00 0.00 0.00 0.00 0.00 0.00 0.00 0.00 0.00
0.00 0.01 0.01 0.00 0.02 0.00 0.00 0.00 0.00 0.00 0.00 0.00 0.00 0.00 0.00 0.00 0.00 0.02 0.08 0.11 0.12 0.12 0.22 0.07 0.00 0.00 0.00 0.00 0.00 0.00 0.00 0.00 0.00 0.00 0.00 0.00 0.00 0.00 0.00 0.00 0.01 0.01 0.00 0.00 0.00 0.00 0.00 0.00 0.00
0.01 0.02 0.02 0.02 0.03 0.01 0.00 0.01 0.00 0.00 0.00 0.00 0.00 0.00 0.00 0.00 0.00 0.02 0.05 0.05 0.14 0.05 0.05 0.04 0.00 0.00 0.00 0.00 0.00 0.00 0.00 0.00 0.00 0.00 0.00 0.00 0.00 0.00 0.00 0.00 0.00 0.00 0.00 0.00 0.00 0.00 0.00 0.00 0.00
0.02 0.01 0.00 0.05 0.07 0.02 0.00 0.00 0.00 0.00 0.00 0.00 0.00 0.00 0.00 0.00 0.00 0.03 0.04 0.05 0.07 0.11 0.07 0.02 0.00 0.00 0.00 0.00 0.00 0.00 0.00 0.00 0.00 0.00 0.00 0.00 0.00 0.00 0.00 0.00 0.00 0.00 0.00 0.00 0.00 0.00 0.00 0.00 0.00
0.00 0.01 0.02 0.02 0.02 0.00 0.00 0.00 0.00 0.00 0.00 0.00 0.00 0.00 0.00 0.00 0.00 0.02 0.03 0.05 0.02 0.02 0.01 0.00 0.00 0.00 0.00 0.00 0.00 0.00 0.00 0.00 0.00 0.00 0.00 0.00 0.00 0.00 0.00 0.00 0.00 0.00 0.00 0.00 0.00 0.00 0.00 0.00 0.00
0.00 0.00 0.00 0.00 0.01 0.00 0.00 0.00 0.00 0.00 0.00 0.00 0.00 0.00 0.00 0.00 0.00 0.00 0.01 0.04 0.12 0.09 0.09 0.01 0.00 0.00 0.00 0.00 0.00 0.00 0.00 0.00 0.00 0.00 0.02 0.00 0.00 0.00 0.00 0.00 0.00 0.00 0.00 0.00 0.00 0.00 0.00 0.00 0.00
0.00 0.00 0.00 0.00 0.01 0.01 0.00 0.00 0.00 0.00 0.00 0.00 0.00 0.00 0.00 0.00 0.00 0.00 0.06 0.13 0.10 0.07 0.02 0.01 0.00 0.00 0.00 0.00 0.00 0.00 0.00 0.00 0.00 0.01 0.04 0.00 0.00 0.00 0.00 0.00 0.00 0.00 0.00 0.00 0.00 0.00 0.00 0.00 0.00
0.00 0.00 0.01 0.01 0.01 0.02 0.02 0.00 0.00 0.00 0.00 0.00 0.00 0.00 0.00 0.00 0.00 0.00 0.01 0.06 0.02 0.16 0.24 0.10 0.04 0.00 0.00 0.01 0.02 0.01 0.04 0.01 0.02 0.02 0.02 0.01 0.00 0.00 0.00 0.00 0.00 0.00 0.00 0.00 0.00 0.00 0.00 0.00 0.00
0.00 0.00 0.00 0.00 0.00 0.03 0.04 0.01 0.00 0.00 0.00 0.00 0.00 0.00 0.00 0.00 0.00 0.00 0.02 0.15 0.27 0.28 0.28 0.14 0.04 0.02 0.02 0.02 0.01 0.01 0.01 0.01 0.01 0.01 0.00 0.00 0.00 0.00 0.00 0.00 0.00 0.00 0.00 0.00 0.00 0.00 0.00 0.00 0.00
0.01 0.03 0.00 0.00 0.00 0.01 0.04 0.05 0.00 0.00 0.00 0.00 0.00 0.00 0.00 0.00 0.00 0.00 0.03 0.15 0.21 0.51 0.75 0.58 0.29 0.11 0.03 0.01 0.03 0.12 0.06 0.01 0.01 0.01 0.00 0.00 0.00 0.00 0.00 0.00 0.00 0.00 0.00 0.00 0.00 0.00 0.00 0.00 0.00
MSLP
1009.82 1009.33 1009.52 1009.69 1009.98 1008.73 1007.10 1004.98 1003.28 1001.45 999.96 999.74 999.50 1001.21 1002.34 1002.83 1003.97 1005.44 1004.41 1004.12 1004.93 1006.43 1006.82 1007.18 1007.36 1007.63 1007.99 1008.41 1008.84 1009.46 1009.97 1010.52 1010.92 1011.39 1011.77 1011.94 1012.24 1012.50 1012.72 1012.94 1013.05 1013.20 1013.41 1013.64 1013.88 1014.00 1014.03 1014.09 1014.09
1009.91 1009.58 1009.09 1009.23 1009.56 1008.84 1005.78 1004.15 1002.63 1000.62 998.71 1000.07 999.94 1001.02 1002.00 1003.63 1003.74 1004.43 1005.36 1005.50 1005.65 1006.58 1007.24 1007.38 1007.44 1007.66 1008.15 1008.62 1009.10 1009.58 1010.18 1010.70 1011.23 1011.66 1012.00 1012.31 1012.55 1012.73 1012.93 1013.10 1013.17 1013.32 1013.52 1013.73 1013.89 1014.00 1014.04 1014.08 1014.12
1010.06 1009.82 1009.68 1009.09 1008.64 1007.54 1004.97 1003.21 1001.84 999.95 998.28 998.80 999.97 1000.39 1001.20 1002.64 1002.74 1003.84 1006.14 1006.02 1005.68 1007.03 1007.47 1007.54 1007.74 1007.69 1008.22 1008.72 1009.24 1009.62 1010.33 1010.90 1011.31 1011.72 1012.17 1012.44 1012.70 1012.88 1013.00 1013.25 1013.28 1013.33 1013.56 1013.77 1013.98 1014.09 1014.10 1014.11 1014.01
1009.74 1009.50 1009.23 1008.08 1007.21 1005.46 1004.12 1002.95 1001.55 999.96 998.61 998.83 998.00 999.69 1000.74 1000.81 1001.10 1001.46 1005.27 1006.67 1005.87 1006.70 1007.57 1007.59 1007.77 1008.03 1008.26 1008.74 1009.34 1009.71 1010.27 1010.97 1011.49 1011.86 1012.23 1012.68 1012.88 1012.98 1013.10 1013.25 1013.30 1013.40 1013.61 1013.80 1013.93 1014.01 1014.09 1014.05 1013.92
1009.49 1009.44 1009.21 1007.95 1006.42 1005.01 1003.75 1002.64 1001.78 1000.12 999.05 998.42 998.50 999.23 1000.58 1001.78 1000.55 1000.34 1002.44 1005.16 1005.65 1006.92 1007.24 1007.84 1007.80 1008.09 1008.40 1009.02 1009.52 1009.84 1010.24 1010.83 1011.42 1012.00 1012.25 1012.59 1012.95 1013.15 1013.20 1013.28 1013.39 1013.51 1013.68 1013.85 1013.94 1013.93 1013.96 1013.95 1013.70
1010.13 1009.11 1008.82 1007.73 1006.12 1004.73 1003.34 1002.24 1001.14 1000.10 998.80 997.84 998.28 999.27 1000.57 1001.52 1001.83 1001.78 1002.44 1003.82 1005.54 1006.38 1007.30 1007.76 1008.02 1008.13 1008.51 1009.06 1009.74 1010.05 1010.33 1010.81 1011.27 1011.90 1012.44 1012.69 1012.94 1013.05 1013.32 1013.34 1013.48 1013.58 1013.66 1013.80 1013.90 1013.86 1013.84 1013.71 1013.44
1010.30 1009.62 1008.25 1007.30 1005.93 1004.26 1002.86 1001.50 1000.62 999.67 998.60 997.40 997.62 998.90 998.97 1000.42 1000.86 1001.02 1002.07 1003.42 1005.20 1006.34 1007.64 1007.90 1008.16 1008.51 1008.40 1009.17 1009.78 1010.25 1010.54 1011.02 1011.34 1011.70 1012.39 1012.78 1013.06 1013.09 1013.27 1013.40 1013.47 1013.57 1013.71 1013.79 1013.81 1013.74 1013.60 1013.47 1013.32
1009.60 1009.48 1008.21 1007.06 1005.98 1003.79 1002.70 1001.20 1000.36 999.55 997.66 996.87 996.81 998.51 998.68 999.06 1000.60 1001.12 1001.66 1003.34 1004.99 1006.30 1007.61 1008.03 1008.29 1008.74 1008.78 1009.15 1009.66 1010.28 1010.60 1011.21 1011.52 1011.78 1012.35 1012.83 1013.00 1013.12 1013.19 1013.31 1013.44 1013.54 1013.61 1013.66 1013.50 1013.54 1013.53 1013.39 1013.07
1009.11 1009.04 1007.49 1006.72 1005.93 1004.50 1002.69 1001.35 999.62 999.03 998.19 997.14 996.47 996.86 997.99 998.18 999.72 1001.34 1002.58 1003.56 1004.59 1006.04 1007.22 1007.85 1008.38 1008.81 1008.92 1009.43 1009.74 1010.21 1010.64 1011.16 1011.67 1011.90 1012.22 1012.74 1013.10 1013.19 1013.18 1013.24 1013.35 1013.31 1013.44 1013.41 1013.26 1013.28 1013.30 1013.31 1013.21
1008.90 1008.08 1006.91 1006.65 1005.60 1004.41 1002.92 1001.72 1000.43 1000.12 998.88 997.79 997.89 997.71 998.33 998.45 999.77 1000.41 1002.12 1003.36 1003.99 1005.42 1006.62 1007.18 1008.06 1008.63 1008.84 1009.33 1009.95 1010.20 1010.58 1011.14 1011.75 1011.96 1012.18 1012.53 1012.97 1013.09 1013.14 1013.08 1012.99 1013.06 1013.29 1013.13 1013.00 1013.12 1013.28 1013.17 1013.09
1008.06 1007.42 1006.97 1005.94 1005.23 1004.22 1003.13 1001.44 1000.97 1000.52 999.40 998.91 999.29 997.81 998.25 998.58 999.20 1000.64 1001.60 1002.16 1003.08 1004.37 1005.58 1006.34 1007.26 1008.10 1008.64 1009.30 1009.93 1010.28 1010.53 1011.03 1011.56 1011.79 1012.04 1012.34 1012.75 1012.99 1012.94 1012.92 1012.97 1012.97 1013.12 1013.05 1012.79 1013.07 1013.18 1013.18 1012.90
1007.63 1006.82 1006.24 1005.58 1004.85 1003.95 1003.00 1002.25 1000.83 1000.34 999.37 999.39 999.37 998.32 997.19 998.27 998.69 999.68 1000.88 1002.00 1003.13 1003.96 1005.08 1005.84 1006.18 1007.25 1008.22 1008.98 1009.64 1009.95 1010.54 1010.78 1011.24 1011.38 1011.75 1012.21 1012.58 1012.72 1012.62 1012.78 1012.91 1012.81 1013.01 1012.76 1013.02 1012.88 1013.03 1013.22 1012.77
1007.29 1006.69 1005.84 1004.89 1004.19 1003.48 1002.78 1001.86 1000.92 999.93 999.23 999.30 998.92 999.04 997.54 997.58 998.00 998.82 999.88 1001.20 1002.60 1003.34 1004.42 1005.23 1005.57 1006.38 1007.71 1008.70 1009.29 1009.78 1010.26 1010.50 1010.74 1011.10 1011.39 1011.79 1012.21 1012.34 1012.23 1012.44 1012.68 1012.72 1012.70 1012.72 1012.95 1013.03 1012.96 1013.09 1013.01
1007.56 1006.74 1005.86 1004.93 1004.18 1003.22 1002.54 1001.52 1001.11 999.34 999.28 999.11 998.48 999.08 999.40 997.05 997.36 998.44 999.92 1000.81 1001.89 1002.52 1003.58 1004.53 1004.90 1005.26 1007.14 1008.24 1008.76 1009.33 1009.74 1010.07 1010.42 1010.82 1010.97 1011.42 1011.70 1011.89 1012.23 1012.47 1012.45 1012.34 1012.66 1012.64 1012.84 1013.04 1013.29 1013.50 1013.44
1007.86 1007.21 1006.10 1004.96 1004.02 1003.37 1002.70 1001.56 1000.66 999.51 999.49 999.06 998.45 998.02 998.47 998.07 996.90 997.37 998.97 1000.16 1000.82 1001.96 1003.08 1004.10 1004.56 1004.06 1005.97 1007.54 1008.20 1008.66 1009.07 1009.47 1010.10 1010.42 1010.62 1011.02 1011.51 1011.86 1012.19 1012.45 1012.44 1012.66 1012.70 1012.49 1012.93 1013.37 1013.61 1013.79 1013.81
1008.46 1007.64 1006.62 1005.16 1004.15 1003.22 1003.00 1001.68 1000.38 999.82 999.72 999.01 998.49 998.18 997.90 998.37 997.44 997.39 998.16 999.37 1000.31 1001.57 1002.70 1003.80 1004.02 1003.84 1004.78 1006.72 1007.78 1008.23 1008.57 1009.00 1009.51 1009.92 1010.25 1010.68 1011.33 1011.63 1012.04 1012.59 1012.70 1012.58 1012.54 1012.74 1013.24 1013.63 1014.12 1014.31 1014.47
1008.42 1007.76 1006.72 1005.45 1004.46 1003.53 1002.70 1001.77 1000.31 1000.01 999.84 999.04 998.66 998.41 998.25 998.71 997.96 998.88 999.44 998.99 999.88 1001.02 1002.22 1003.28 1003.91 1004.40 1003.93 1005.95 1007.05 1007.86 1008.38 1008.58 1008.97 1009.45 1010.07 1010.50 1010.89 1011.32 1011.92 1012.52 1012.74 1012.78 1013.02 1013.26 1013.66 1014.09 1014.44 1014.94 1014.78
1008.34 1007.47 1006.38 1005.44 1004.63 1004.02 1003.38 1001.85 1000.64 1000.05 999.75 999.12 998.62 998.33 998.35 998.71 998.81 998.67 1001.12 1000.52 1000.49 1000.76 1001.60 1002.66 1003.42 1003.86 1005.08 1005.59 1006.52 1007.62 1008.15 1008.41 1008.55 1009.29 1009.67 1010.14 1010.56 1011.20 1011.86 1012.44 1012.80 1012.94 1013.34 1013.90 1014.17 1014.49 1014.88 1015.17 1015.17
1007.78 1007.06 1006.27 1005.47 1004.91 1004.60 1003.74 1002.54 1001.36 1000.14 999.46 998.68 998.56 998.15 998.22 998.73 999.38 999.41 1001.71 1000.46 1002.45 1001.39 1001.50 1002.25 1002.92 1003.92 1004.69 1005.75 1007.12 1007.83 1008.53 1008.69 1009.09 1009.34 1009.34 1009.98 1010.44 1011.00 1011.53 1012.23 1012.87 1013.34 1013.74 1014.37 1014.68 1014.86 1015.46 1015.58 1015.26
1008.18 1007.03 1006.28 1005.61 1005.19 1005.01 1003.92 1002.55 1001.43 1000.28 998.98 998.32 998.00 997.98 997.81 998.48 999.32 999.56 1000.41 1000.57 1002.95 1001.60 1001.86 1002.62 1003.25 1003.87 1004.66 1005.60 1006.89 1007.68 1008.17 1008.36 1008.76 1009.10 1009.53 1010.04 1010.54 1011.11 1011.68 1012.03 1013.06 1013.53 1013.98 1014.66 1015.00 1015.23 1015.62 1015.73 1015.60
1008.04 1007.22 1006.80 1006.32 1005.59 1005.18 1004.64 1002.83 1001.46 999.70 998.17 997.67 997.11 997.28 997.38 997.85 999.18 1000.03 1001.17 1001.60 1002.63 1001.32 1002.48 1001.83 1003.04 1004.12 1005.04 1005.59 1006.64 1007.76 1008.53 1009.08 1009.70 1009.75 1009.92 1010.42 1010.82 1011.29 1011.80 1012.19 1012.87 1013.58 1014.28 1015.11 1015.36 1015.54 1015.70 1016.15 1015.95
1008.35 1007.08 1007.23 1007.06 1006.93 1005.39 1004.86 1004.12 1001.75 999.68 997.79 997.08 996.70 996.51 996.98 997.08 997.55 999.88 1001.22 1001.73 1001.47 1003.01 1003.08 1000.96 1003.22 1004.40 1005.25 1005.64 1006.69 1007.72 1008.68 1009.22 1009.96 1010.16 1010.41 1011.20 1011.22 1011.53 1012.13 1012.53 1013.05 1013.84 1014.64 1015.31 1015.74 1016.01 1016.22 1016.33 1016.72
1007.12 1006.50 1006.90 1007.02 1006.74 1005.98 1004.78 1004.49 1001.12 999.52 997.48 996.56 996.28 996.33 996.29 996.36 997.12 999.68 1000.94 1001.49 1001.28 1002.25 1003.30 1002.98 1003.82 1004.68 1005.66 1005.86 1006.34 1007.42 1008.40 1009.16 1010.04 1010.57 1010.87 1011.68 1011.81 1012.10 1012.50 1012.94 1013.42 1014.36 1015.03 1015.51 1015.97 1016.33 1016.56 1016.75 1016.91
1006.41 1006.94 1007.01 1006.90 1006.73 1005.97 1004.01 1004.25 1000.43 998.40 996.72 995.84 995.37 995.50 995.72 996.11 996.56 998.67 1000.21 1001.10 1001.24 1001.58 1002.28 1003.24 1004.19 1004.87 1005.30 1005.75 1006.40 1007.11 1007.98 1009.23 1009.92 1010.72 1011.24 1011.75 1012.41 1012.96 1013.25 1013.28 1014.05 1014.50 1015.36 1015.79 1016.26 1016.61 1016.80 1016.99 1017.13
1006.75 1007.44 1007.74 1007.46 1006.85 1005.11 1002.89 1002.48 999.36 997.01 995.84 994.94 994.42 994.69 994.74 995.15 995.84 997.26 999.00 1000.72 1001.23 1001.42 1001.90 1002.74 1003.71 1004.51 1004.90 1005.46 1006.05 1006.80 1007.55 1008.43 1009.28 1010.32 1011.10 1011.69 1012.69 1013.40 1013.87 1013.96 1014.52 1015.07 1015.62 1015.87 1016.36 1016.70 1016.94 1016.87 1017.02
1006.54 1008.01 1008.29 1008.10 1006.62 1004.74 1002.22 999.62 997.54 996.70 995.78 994.62 993.83 994.07 994.28 994.42 994.75 995.65 997.04 997.94 999.14 1000.35 1001.41 1002.29 1002.93 1004.02 1004.92 1005.65 1006.16 1006.88 1007.76 1008.56 1009.30 1010.02 1010.90 1011.90 1012.78 1013.38 1014.14 1014.50 1015.06 1015.55 1015.94 1016.26 1016.71 1016.98 1017.14 1017.44 1017.23
1006.68 1007.55 1007.24 1008.12 1006.74 1006.04 1002.04 998.38 996.96 995.58 994.88 994.50 993.48 993.75 993.95 994.04 994.46 995.09 996.82 998.36 999.62 1000.40 1001.10 1002.18 1003.18 1004.01 1005.14 1005.97 1006.50 1007.08 1007.79 1008.64 1009.54 1010.64 1011.48 1012.46 1012.99 1013.72 1014.60 1015.16 1015.65 1016.15 1016.35 1016.69 1016.89 1017.20 1017.62 1017.57 1017.40
1005.24 1005.99 1007.50 1007.94 1006.41 1004.49 1000.98 998.27 997.00 995.92 995.00 993.97 993.38 993.13 993.35 993.56 994.00 994.82 996.50 998.10 999.18 1000.20 1000.81 1002.01 1003.32 1004.22 1005.10 1006.12 1006.59 1007.48 1008.52 1009.18 1010.27 1011.30 1012.24 1013.00 1013.88 1014.22 1015.12 1015.62 1016.28 1016.79 1017.01 1017.14 1017.50 1017.47 1017.68 1017.51 1017.52
1005.30 1005.73 1006.80 1007.30 1006.44 1004.86 1002.62 998.71 997.47 996.98 996.21 994.60 992.61 992.18 992.39 993.08 993.66 994.77 996.03 997.16 998.80 1000.26 1001.49 1002.06 1003.53 1004.54 1005.28 1006.10 1007.16 1008.18 1009.50 1010.25 1011.02 1011.95 1012.77 1013.56 1014.20 1014.97 1015.84 1016.55 1017.17 1017.50 1017.77 1017.98 1017.89 1017.86 1017.81 1017.94 1018.08
1003.77 1004.93 1004.96 1005.36 1005.56 1004.71 1003.17 1000.05 998.01 997.27 995.88 993.28 991.27 991.49 992.04 993.06 993.00 994.43 996.08 997.72 999.55 1000.37 1001.10 1002.05 1002.90 1004.56 1005.44 1006.62 1007.46 1008.69 1009.80 1010.72 1011.80 1012.68 1013.19 1014.04 1015.01 1015.96 1016.69 1017.26 1017.80 1018.25 1018.50 1018.68 1018.60 1018.58 1018.56 1018.47 1018.44
Thickness
5775 5779 5777 5769 5735 5746 5753 5782 5814 5820 5834 5843 5853 5834 5820 5828 5811 5760 5838 5855 5856 5844 5844 5843 5844 5843 5841 5839 5838 5834 5831 5829 5827 5825 5823 5822 5820 5818 5816 5814 5812 5810 5807 5804 5802 5800 5799 5798 5797
5769 5772 5772 5754 5722 5717 5764 5803 5805 5833 5860 5840 5842 5831 5824 5802 5824 5826 5824 5842 5845 5842 5838 5840 5842 5841 5838 5836 5835 5833 5829 5826 5824 5822 5819 5818 5816 5815 5813 5812 5811 5809 5806 5804 5802 5800 5799 5798 5796
5762 5764 5746 5734 5724 5732 5767 5804 5817 5843 5865 5857 5835 5844 5829 5814 5831 5833 5801 5827 5844 5835 5834 5836 5837 5840 5837 5835 5832 5831 5827 5824 5822 5820 5816 5815 5814 5813 5812 5810 5810 5808 5806 5803 5801 5799 5798 5797 5796
5752 5751 5748 5726 5731 5766 5786 5799 5816 5833 5852 5852 5868 5830 5836 5847 5849 5859 5824 5810 5836 5837 5831 5834 5835 5835 5835 5833 5830 5830 5827 5823 5819 5818 5816 5812 5811 5811 5810 5809 5808 5807 5805 5803 5801 5800 5798 5796 5796
5746 5737 5717 5721 5743 5773 5791 5803 5809 5816 5834 5844 5853 5825 5817 5827 5854 5860 5846 5834 5832 5831 5832 5829 5833 5832 5832 5830 5828 5827 5826 5823 5819 5816 5815 5812 5810 5808 5808 5808 5806 5805 5803 5801 5800 5799 5798 5796 5796
5716 5730 5706 5717 5742 5769 5788 5803 5810 5817 5831 5844 5844 5825 5814 5828 5830 5844 5847 5839 5835 5833 5829 5827 5828 5829 5828 5825 5824 5824 5825 5822 5819 5816 5812 5810 5808 5808 5805 5806 5803 5803 5802 5801 5799 5798 5797 5796 5796
5704 5702 5709 5717 5734 5756 5778 5804 5803 5816 5827 5838 5853 5819 5827 5824 5834 5846 5847 5846 5834 5832 5823 5823 5823 5823 5826 5822 5820 5820 5821 5819 5817 5816 5811 5809 5807 5806 5804 5803 5802 5801 5800 5799 5797 5797 5797 5796 5794
5703 5693 5699 5714 5722 5741 5775 5795 5803 5808 5829 5864 5861 5812 5810 5833 5835 5844 5850 5844 5832 5826 5819 5819 5818 5816 5820 5820 5818 5817 5817 5815 5814 5814 5810 5806 5805 5804 5804 5802 5800 5799 5799 5797 5798 5796 5794 5792 5793
5698 5674 5687 5704 5710 5728 5766 5773 5804 5821 5818 5842 5855 5843 5836 5849 5834 5828 5828 5832 5831 5821 5817 5817 5815 5813 5815 5814 5814 5813 5813 5812 5810 5810 5809 5805 5802 5802 5801 5801 5799 5799 5797 5797 5796 5795 5792 5790 5790
5667 5662 5685 5706 5712 5716 5744 5760 5779 5778 5796 5815 5820 5837 5834 5838 5823 5819 5818 5821 5828 5817 5815 5817 5813 5811 5812 5811 5809 5811 5810 5809 5806 5807 5807 5805 5801 5800 5799 5799 5799 5798 5796 5795 5795 5794 5790 5787 5786
5662 5653 5677 5691 5701 5712 5724 5747 5764 5758 5767 5795 5791 5820 5822 5825 5820 5812 5814 5826 5829 5823 5819 5817 5815 5812 5811 5808 5805 5806 5808 5808 5805 5805 5805 5803 5799 5797 5798 5798 5796 5796 5794 5793 5795 5791 5787 5783 5781
5637 5658 5666 5675 5686 5694 5701 5723 5735 5751 5771 5788 5794 5811 5827 5815 5816 5813 5812 5820 5821 5824 5817 5817 5820 5814 5810 5806 5805 5804 5805 5806 5804 5804 5803 5800 5798 5796 5797 5795 5792 5794 5792 5795 5790 5787 5785 5778 5778
5631 5643 5653 5666 5674 5680 5694 5701 5722 5739 5772 5780 5790 5793 5812 5816 5816 5818 5815 5816 5819 5821 5818 5817 5820 5818 5810 5805 5804 5804 5804 5803 5803 5803 5803 5800 5797 5796 5796 5793 5791 5790 5791 5791 5786 5782 5780 5776 5772
5624 5629 5638 5650 5655 5664 5672 5687 5703 5740 5761 5762 5776 5774 5775 5811 5812 5812 5805 5807 5815 5822 5821 5819 5821 5826 5811 5805 5805 5804 5803 5803 5802 5800 5802 5798 5796 5793 5792 5790 5792 5790 5788 5784 5780 5776 5773 5767 5764
5612 5605 5623 5636 5650 5651 5668 5665 5682 5732 5742 5745 5760 5774 5776 5784 5808 5810 5811 5806 5815 5819 5819 5818 5818 5834 5818 5807 5805 5806 5805 5804 5802 5799 5799 5795 5793 5790 5787 5786 5787 5784 5781 5780 5773 5769 5766 5759 5756
5591 5596 5592 5627 5636 5650 5649 5637 5686 5715 5719 5731 5746 5758 5772 5769 5791 5803 5817 5806 5813 5811 5813 5813 5819 5828 5824 5810 5806 5806 5806 5805 5803 5800 5795 5794 5790 5788 5785 5781 5781 5779 5778 5774 5768 5762 5755 5749 5744
5580 5574 5586 5604 5626 5634 5636 5634 5680 5697 5704 5721 5733 5743 5756 5759 5772 5784 5796 5805 5806 5809 5810 5807 5811 5812 5828 5811 5806 5802 5803 5804 5802 5799 5793 5793 5790 5787 5783 5779 5774 5773 5772 5767 5762 5754 5749 5740 5737
5570 5577 5587 5592 5609 5613 5613 5630 5664 5680 5689 5704 5721 5736 5744 5751 5756 5784 5766 5782 5791 5805 5808 5804 5807 5809 5808 5810 5808 5799 5798 5800 5799 5797 5794 5790 5789 5784 5776 5772 5770 5769 5764 5756 5753 5747 5740 5734 5730
5582 5580 5581 5592 5600 5593 5599 5615 5635 5664 5676 5695 5709 5727 5735 5739 5750 5769 5744 5774 5765 5782 5797 5801 5803 5802 5803 5800 5792 5790 5786 5790 5790 5790 5793 5787 5783 5778 5773 5768 5767 5761 5755 5747 5743 5739 5729 5723 5721
5566 5571 5574 5583 5589 5584 5594 5606 5629 5645 5667 5688 5705 5717 5731 5736 5745 5758 5756 5768 5750 5769 5782 5787 5792 5796 5797 5795 5786 5784 5786 5789 5789 5787 5786 5781 5776 5773 5769 5766 5759 5753 5749 5740 5734 5728 5720 5716 5712
5562 5559 5561 5561 5573 5578 5582 5592 5613 5641 5667 5685 5702 5719 5728 5736 5736 5744 5741 5743 5743 5736 5759 5785 5789 5788 5789 5789 5785 5779 5775 5775 5771 5773 5777 5774 5770 5765 5763 5759 5755 5748 5740 5729 5724 5719 5715 5705 5703
5537 5566 5557 5549 5542 5551 5581 5552 5593 5630 5655 5675 5693 5711 5721 5734 5747 5736 5733 5727 5748 5744 5732 5761 5777 5780 5782 5786 5779 5772 5765 5763 5763 5764 5766 5763 5762 5760 5755 5752 5747 5740 5731 5721 5714 5710 5703 5696 5686
5559 5571 5561 5553 5542 5547 5565 5560 5600 5629 5648 5668 5685 5700 5721 5737 5741 5723 5724 5731 5757 5752 5746 5760 5768 5772 5773 5777 5778 5772 5765 5765 5761 5759 5757 5751 5752 5749 5747 5741 5736 5727 5719 5714 5707 5700 5692 5683 5676
5572 5559 5555 5554 5545 5542 5574 5567 5600 5629 5656 5673 5693 5705 5718 5727 5738 5727 5726 5732 5751 5761 5765 5760 5763 5765 5770 5772 5772 5770 5766 5760 5757 5751 5748 5746 5742 5738 5736 5732 5724 5718 5710 5704 5696 5688 5681 5672 5665
5563 5550 5542 5537 5541 5550 5596 5580 5615 5650 5670 5688 5699 5708 5720 5729 5737 5732 5734 5732 5746 5756 5759 5762 5764 5764 5768 5770 5771 5770 5767 5762 5755 5749 5744 5743 5734 5726 5723 5720 5714 5709 5701 5694 5685 5678 5670 5665 5655
5560 5548 5541 5542 5559 5568 5597 5596 5628 5659 5671 5692 5709 5714 5722 5730 5738 5745 5749 5763 5760 5758 5760 5761 5767 5764 5765 5764 5764 5764 5758 5754 5750 5747 5741 5733 5725 5721 5715 5710 5703 5698 5690 5682 5673 5666 5660 5653 5650
5560 5551 5566 5543 5553 5548 5587 5627 5646 5669 5677 5684 5706 5711 5715 5726 5733 5743 5743 5744 5745 5752 5757 5760 5760 5759 5757 5757 5756 5755 5751 5746 5742 5736 5728 5720 5717 5711 5704 5698 5693 5685 5677 5670 5665 5658 5651 5646 5642
5584 5584 5562 5551 5571 5576 5611 5630 5631 5656 5671 5688 5699 5709 5718 5726 5733 5744 5739 5741 5751 5753 5760 5758 5753 5753 5752 5747 5747 5744 5739 5737 5730 5722 5714 5708 5702 5701 5693 5689 5681 5671 5666 5661 5655 5648 5641 5636 5627
5577 5574 5565 5560 5565 5573 5586 5623 5645 5644 5651 5664 5701 5717 5724 5726 5735 5742 5742 5752 5754 5747 5745 5749 5745 5744 5740 5739 5734 5732 5725 5718 5714 5709 5704 5699 5694 5689 5681 5674 5666 5660 5653 5646 5642 5636 5629 5620 5612
5602 5584 5584 5572 5566 5571 5581 5611 5646 5657 5666 5690 5717 5720 5724 5729 5749 5750 5738 5740 5737 5742 5745 5744 5739 5733 5734 5731 5727 5719 5711 5706 5702 5697 5695 5689 5682 5675 5668 5660 5653 5644 5638 5631 5627 5621 5614 5607 5601